| time (UTC) | temp F | wind direction | speed MPH | gust MPH | rain 1hr in | rain 24hr in | rain mn in | humidity % | barometer mb |
| 20260504081522 | 52 | 165 | 0.0 | 7.0 | 0.00 | 0.03 | 0.00 | 73 | 1008.5 |
| 20260504044530 | 48 | 139 | 0.0 | 0.0 | 0.00 | 0.03 | 0.00 | 80 | 1010.3 |
| 20260504043038 | 48 | 131 | 0.0 | 1.0 | 0.00 | 0.03 | 0.00 | 81 | 1010.4 |
| 20260504041524 | 48 | 172 | 0.0 | 1.0 | 0.00 | 0.03 | 0.00 | 81 | 1010.5 |
| 20260504040024 | 48 | 123 | 0.0 | 0.0 | 0.00 | 0.03 | 0.00 | 81 | 1010.7 |
| 20260504034518 | 49 | 149 | 0.0 | 1.0 | 0.00 | 0.03 | 0.03 | 80 | 1010.8 |
| 20260504033019 | 49 | 95 | 0.0 | 1.0 | 0.00 | 0.03 | 0.03 | 80 | 1011.1 |
| 20260504031515 | 49 | 142 | 0.0 | 1.0 | 0.00 | 0.03 | 0.03 | 79 | 1011.2 |
| 20260504030016 | 50 | 135 | 0.0 | 3.0 | 0.00 | 0.03 | 0.03 | 78 | 1011.3 |
| 20260504024512 | 50 | 139 | 0.0 | 1.0 | 0.00 | 0.03 | 0.03 | 77 | 1011.4 |
| 20260504023010 | 51 | 207 | 0.0 | 4.0 | 0.00 | 0.03 | 0.03 | 76 | 1011.4 |
| 20260504021511 | 50 | 138 | 0.0 | 3.0 | 0.00 | 0.03 | 0.03 | 77 | 1011.6 |
| 20260504020006 | 50 | 81 | 0.0 | 7.0 | 0.00 | 0.03 | 0.03 | 77 | 1011.7 |
| 20260504014506 | 50 | 118 | 0.0 | 6.0 | 0.00 | 0.03 | 0.03 | 77 | 1011.8 |
| 20260504013003 | 50 | 138 | 0.0 | 6.0 | 0.00 | 0.03 | 0.03 | 77 | 1011.7 |
| 20260504011602 | 50 | 147 | 0.0 | 7.0 | 0.00 | 0.03 | 0.03 | 79 | 1011.7 |
| 20260504010104 | 49 | 155 | 0.0 | 8.0 | 0.00 | 0.03 | 0.03 | 80 | 1011.9 |
| 20260504004608 | 49 | 161 | 0.0 | 7.0 | 0.00 | 0.03 | 0.03 | 82 | 1011.9 |
| 20260504003054 | 49 | 97 | 0.0 | 4.0 | 0.00 | 0.03 | 0.03 | 82 | 1012.0 |
| 20260504001552 | 49 | 146 | 0.0 | 6.0 | 0.00 | 0.03 | 0.03 | 82 | 1011.9 |
| 20260504000049 | 49 | 115 | 2.0 | 8.0 | 0.00 | 0.03 | 0.03 | 82 | 1012.1 |
| 20260503234547 | 49 | 103 | 2.0 | 9.0 | 0.00 | 0.03 | 0.03 | 82 | 1012.3 |
| 20260503233047 | 49 | 117 | 4.0 | 11.0 | 0.00 | 0.03 | 0.03 | 80 | 1012.3 |
| 20260503231543 | 49 | 121 | 0.0 | 6.0 | 0.00 | 0.03 | 0.03 | 81 | 1012.5 |
| 20260503230141 | 49 | 58 | 1.0 | 6.0 | 0.00 | 0.03 | 0.03 | 81 | 1012.6 |
| 20260503224537 | 49 | 219 | 0.0 | 9.0 | 0.00 | 0.03 | 0.03 | 83 | 1012.6 |
| 20260503223038 | 48 | 159 | 0.0 | 10.0 | 0.00 | 0.03 | 0.03 | 83 | 1012.8 |
| 20260503221536 | 48 | 109 | 2.0 | 8.0 | 0.00 | 0.03 | 0.03 | 83 | 1012.9 |
| 20260503220031 | 48 | 125 | 3.0 | 10.0 | 0.02 | 0.03 | 0.03 | 83 | 1012.9 |
| 20260503214530 | 48 | 121 | 3.0 | 8.0 | 0.03 | 0.03 | 0.03 | 84 | 1013.2 |
| 20260503213027 | 48 | 152 | 2.0 | 10.0 | 0.03 | 0.03 | 0.03 | 84 | 1013.6 |
| 20260503211523 | 48 | 135 | 4.0 | 10.0 | 0.03 | 0.03 | 0.03 | 84 | 1013.9 |
| 20260503210018 | 48 | 196 | 2.0 | 11.0 | 0.02 | 0.02 | 0.02 | 83 | 1014.6 |
| 20260503204519 | 49 | 138 | 6.0 | 25.0 | 0.00 | 0.00 | 0.00 | 80 | 1015.2 |
| 20260503203014 | 51 | 251 | 3.0 | 26.0 | 0.00 | 0.00 | 0.00 | 77 | 1015.5 |
| 20260503201511 | 52 | 253 | 10.0 | 29.0 | 0.00 | 0.00 | 0.00 | 71 | 1015.4 |
| 20260503200010 | 54 | 223 | 15.0 | 31.0 | 0.00 | 0.00 | 0.00 | 67 | 1015.2 |
| 20260503194506 | 59 | 302 | 7.0 | 18.0 | 0.00 | 0.00 | 0.00 | 52 | 1014.9 |
| 20260503193005 | 59 | 245 | 15.0 | 29.0 | 0.00 | 0.00 | 0.00 | 50 | 1015.0 |
| 20260503191511 | 60 | 212 | 10.0 | 22.0 | 0.00 | 0.00 | 0.00 | 48 | 1015.0 |
| 20260503190004 | 60 | 219 | 7.0 | 22.0 | 0.00 | 0.00 | 0.00 | 47 | 1015.1 |
| 20260503184606 | 60 | 253 | 11.0 | 23.0 | 0.00 | 0.00 | 0.00 | 46 | 1015.3 |
| 20260503183058 | 60 | 212 | 9.0 | 22.0 | 0.00 | 0.00 | 0.00 | 45 | 1015.3 |
| 20260503181601 | 60 | 187 | 10.0 | 22.0 | 0.00 | 0.00 | 0.00 | 44 | 1015.6 |
| 20260503174550 | 60 | 221 | 11.0 | 22.0 | 0.00 | 0.00 | 0.00 | 42 | 1016.0 |
| 20260503173052 | 60 | 211 | 8.0 | 19.0 | 0.00 | 0.00 | 0.00 | 43 | 1016.2 |
| 20260503171544 | 60 | 252 | 8.0 | 19.0 | 0.00 | 0.00 | 0.00 | 42 | 1016.4 |